Location: *
(33.8649°S, 62.1526°E)
Time: 03:29:42
(UTC+00:00)

Cosmos 1603 - Pass Details

Date: 17 January 2021
Orbit: 829 x 861 km, 71.0° (Epoch: 27 February)

Event Time Altitude Azimuth Distance (km) Brightness Sun altitude
Rises 16:07:27 0° 337° (NNW) 3,425 6.7 -12.1°
Reaches altitude 10° 16:09:54 10° 335° (NNW) 2,496 6.0 -12.5°
Maximum altitude 16:15:39 77° 249° (WSW) 891 3.9 -13.5°
Drops below altitude 10° 16:21:27 10° 162° (SSE) 2,515 6.4 -14.4°
Sets 16:23:56 0° 160° (SSE) 3,453 7.1 -14.8°
